Weather History for Tulsa Jones, OK

Change the Weather History Date:

Wednesday, October 31, 2012

  Actual Average (KTUL) Record (KTUL)
Temperature  
Mean Temperature 57 °F 57 °F  
Max Temperature 71 °F 68 °F 87 °F (1950)
Min Temperature 44 °F 46 °F 18 °F (1993)
Degree Days  
Heating Degree Days 8 9  
Month to date heating degree days 163  
Since 1 July heating degree days 186  
Cooling Degree Days 0 1  
Month to date cooling degree days 63  
Year to date cooling degree days 2028  
Growing Degree Days 7 (Base 50)    
Moisture  
Dew Point 36 °F    
Average Humidity 52    
Maximum Humidity 73    
Minimum Humidity 25    
Precipitation  
Precipitation 0.00 in 0.12 in 6.40 in (1899)
Month to date precipitation 3.93  
Year to date precipitation 35.67  
Sea Level Pressure  
Sea Level Pressure 30.03 in    
Wind  
Wind Speed 4 mph (North)    
Max Wind Speed 9 mph    
Max Gust Speed -    
Visibility 10 miles    
Events      
T = Trace of Precipitation, MM = Missing Value Source: NWS Daily Summary

Daily Weather History Graph

Daily Weather History Graph

Search for Another Location

Airport:

Trip Planner

Search our weather history database for the weather conditions in past years. The results will help you decide how hot, cold, wet, or windy it might be!

Date:

Astronomy

Oct. 31, 2012 Rise Set
Actual Time 7:46 AM CDT 6:28 PM CDT
Civil Twilight 7:19 AM CDT 6:54 PM CDT
Nautical Twilight 6:49 AM CDT 7:25 PM CDT
Astronomical Twilight 6:19 AM CDT 7:55 PM CDT
Moon 7:44 PM CDT (10/31) 9:24 AM CDT (10/31)
Length of Visible Light 11h 35m
Length of Day
10h 42m
Full, 97% of the Moon is Illuminated
Oct 31
Full
Nov 6
Last Quarter
Nov 13
New
Nov 20
First Quarter
Nov 28
Full

Hourly Weather History & Observations

Time (CDT) Temp. Windchill Dew Point Humidity Pressure Visibility Wind Dir Wind Speed Gust Speed Precip Events Conditions
12:53 AM 52.0 °F - 41.0 °F 66% 29.93 in 10.0 mi North 3.5 mph - N/A   Clear
1:53 AM 51.1 °F - 41.0 °F 68% 29.95 in 10.0 mi Variable 3.5 mph - N/A   Clear
2:53 AM 50.0 °F - 39.0 °F 66% 29.97 in 10.0 mi North 6.9 mph - N/A   Clear
3:53 AM 48.9 °F - 37.0 °F 64% 29.98 in 10.0 mi North 5.8 mph - N/A   Clear
4:53 AM 48.0 °F - 36.0 °F 63% 29.99 in 10.0 mi North 4.6 mph - N/A   Clear
5:53 AM 46.9 °F - 35.1 °F 63% 30.01 in 10.0 mi Variable 4.6 mph - N/A   Clear
6:53 AM 45.0 °F - 35.1 °F 68% 30.01 in 10.0 mi Calm Calm - N/A   Clear
7:53 AM 44.1 °F 41.5 °F 33.1 °F 65% 30.03 in 10.0 mi North 4.6 mph - N/A   Clear
8:53 AM 48.0 °F - 32.0 °F 54% 30.06 in 10.0 mi NNE 9.2 mph - N/A   Clear
9:53 AM 54.0 °F - 33.1 °F 45% 30.07 in 10.0 mi NNE 8.1 mph - N/A   Clear
10:53 AM 57.9 °F - 33.1 °F 39% 30.09 in 10.0 mi North 5.8 mph - N/A   Clear
11:53 AM 62.1 °F - 32.0 °F 32% 30.11 in 10.0 mi Variable 4.6 mph - N/A   Clear
12:53 PM 64.9 °F - 32.0 °F 29% 30.09 in 10.0 mi Calm Calm - N/A   Clear
1:53 PM 66.9 °F - 33.1 °F 28% 30.07 in 10.0 mi Variable 4.6 mph - N/A   Clear
2:53 PM 69.1 °F - 33.1 °F 26% 30.04 in 10.0 mi Calm Calm - N/A   Clear
3:53 PM 70.0 °F - 33.1 °F 26% 30.03 in 10.0 mi Variable 4.6 mph - N/A   Clear
4:53 PM 70.0 °F - 32.0 °F 25% 30.02 in 10.0 mi NNE 3.5 mph - N/A   Clear
5:53 PM 66.0 °F - 35.1 °F 32% 30.02 in 10.0 mi Calm Calm - N/A   Clear
6:53 PM 55.9 °F - 37.9 °F 51% 30.00 in 10.0 mi Calm Calm - N/A   Clear
7:53 PM 52.0 °F - 37.9 °F 59% 30.03 in 10.0 mi Calm Calm - N/A   Clear
8:53 PM 50.0 °F - 37.9 °F 63% 30.03 in 10.0 mi Calm Calm - N/A   Clear
9:53 PM 48.0 °F - 37.9 °F 68% 30.04 in 10.0 mi Calm Calm - N/A   Clear
10:53 PM 46.9 °F - 37.9 °F 71% 30.05 in 10.0 mi Calm Calm - N/A   Clear
11:53 PM 46.0 °F - 37.9 °F 73% 30.04 in 10.0 mi Calm Calm - N/A   Clear